Location: ???????
(55.8930°N, 38.0586°E)
Time: 08:34:17
(UTC+00:00)

Cosmos 1805 - Pass Details

Date: 14 April 2024
Orbit: 490 x 494 km, 82.5° (Epoch: 20 May)

Event Time Altitude Azimuth Distance (km) Brightness Sun altitude
Rises 00:34:52 0° 349° (N) 2,588 7.2 -14.0°
Reaches altitude 10° 00:37:00 10° 352° (N) 1,699 6.3 -13.8°
Maximum altitude 00:40:42 67° 76° (ENE) 540 3.5 -13.4°
Drops below altitude 10° 00:44:22 10° 159° (SSE) 1,682 5.6 -13.0°
Sets 00:46:28 0° 163° (SSE) 2,559 6.5 -12.8°
